Showing default

NOAA 16, 26536

Orbit data source: Space-Track

NOAA 16, 26536 is a payload satellite owned by NOAA (US) in SSO that was launched on Thu, 21 Sep 2000 UTC via a TITAN II SLV launch vehicle from the Air Force Western Test Range (AFWTR). Payload-class satellites include a variety of spacecraft equipped with specific instruments for various scientific and technological missions. These include communications satellites like Starlink; space stations such as the ISS; scientific satellites like the Hubble; Earth observation satellites from companies like Planet Labs, Umbra, and HawkEye 360; GPS; miniature CubeSats for education and research; and military/defense satellites.

Loading next visibility...
Identifier
26536, 2000-055A
Orbit
SSO
Last TLE update
4 hours ago
Origin
Manufacturer
LM/EW
Mission
Non-operational Civil Weather
Bus & Motor
ATN, Unknown motor
Mass
2,231 kg wet, 1,403 kg dry
Launch date (UTC)
2000-09-21 (25 years ago)
Launch vehicle
TITAN II SLV
Launch site
Air Force Western Test Range (AFWTR)
Object type
Payload
Rocket body
Debris
Shape & HBR
Box + 1 Pan, 7 m
Radar Cross Section
11.218 m², Large (>1 m²)

Expand to show TLE details & history

TLE from 4 hours ago
0 NOAA 16
1 26536U 00055A   25186.82802083  .00000050  00000-0  48256-4 0  9999
2 26536  98.4870 213.9934 0009786 210.0963 149.9650 14.13813637278280
Epoch: 2025-07-05T19:52Z
TLE epoch observation values (Epoch: 2025-07-05T19:52:20.999Z)
Latitude
0.00002°
Longitude
-8.15457°
Altitude
855.387 km
Speed
7.422 km/s
True Right ascension
14h 15m 58s
True Declination
0° 00' 00"
Sunlit
Object was in daylight at epoch
Visualization orbit readout
Latitude
23.20163°
Longitude
-11.66363°
Altitude
856.191 km
Speed
7.423 km/s
Apparent Right ascension
17h 11m 29s
Apparent Declination
-15° 53' 54"
Sunlit
Object is in daylight
Visualization observer readout
Local Sidereal Time
11:19:07
Azimuth
103.494° ESE
Elevation
-8.697°
Doppler factor
1
Orbital elements
Apogee altitude
850.574 km
Perigee altitude
836.44 km
Semi-major axis
7,221.644 km
Eccentricity
0.00098
Inclination
98.487°
RAAN
213.9934°
Arg. of periapsis
210.0963°
True anomaly
Unknown
Mean anomaly
149.965°
Eccentric anomaly
Unknown
Mean motion
3.53663 °/min
Orbital period
101.79 mins
BSTAR
0.000048256
Loading maneuver chart data...
Loading SW <> Apogee altitude chart data...
Loading historical data...
Loading historical data...
Loading historical data...
Loading historical data...
Loading historical data...
Loading historical data...
Loading historical data...

NOAA 16 Visibility forecast

Observer location: undefined°, undefined°

Span
Click to sort rows by Start time (UTC) header in descending order
Start Az.
Max El. time (UTC)
Max El. Az.
Max El.
End time (UTC)
End Az.
9 mins2025-07-06 01:05:47.262Z133.239° SE2025-07-06 01:09:47.262Z79.854° E31.982°2025-07-06 01:14:47.262Z4.339° NNE
7 mins2025-07-06 02:47:47.262Z220.006° SW2025-07-06 02:50:47.262Z263.27° W24.179°2025-07-06 02:54:47.262Z317.155° NNW
5 mins2025-07-06 13:29:47.262Z68.422° E2025-07-06 13:31:47.262Z95.271° ESE17.37°2025-07-06 13:34:47.262Z131.015° SE
9 mins2025-07-06 15:08:47.262Z359.177° N2025-07-06 15:12:47.262Z275.623° WNW39.343°2025-07-06 15:17:47.262Z211.435° SW
|